TimeCDT,TemperatureF,Dew PointF,Humidity,Sea Level PressureIn,VisibilityMPH,Wind Direction,Wind SpeedMPH,Gust SpeedMPH,PrecipitationIn,Events,Conditions,WindDirDegrees,DateUTC
12:53 AM,75.9,71.1,85,29.96,10.0,Calm,Calm,-,N/A,,Scattered Clouds,0,2013-08-02 05:53:00
1:53 AM,77.0,71.1,82,29.94,10.0,Calm,Calm,-,N/A,,Partly Cloudy,0,2013-08-02 06:53:00
2:53 AM,75.0,72.0,90,29.94,10.0,Calm,Calm,-,N/A,,Clear,0,2013-08-02 07:53:00
3:53 AM,73.9,71.1,91,29.95,10.0,Calm,Calm,-,N/A,,Clear,0,2013-08-02 08:53:00
4:53 AM,73.9,71.1,91,29.94,10.0,Calm,Calm,-,N/A,,Clear,0,2013-08-02 09:53:00
5:53 AM,73.9,71.1,91,29.97,10.0,Calm,Calm,-,N/A,,Clear,0,2013-08-02 10:53:00
6:53 AM,73.9,71.1,91,29.97,10.0,Calm,Calm,-,N/A,,Clear,0,2013-08-02 11:53:00
7:53 AM,77.0,71.1,82,29.97,10.0,Calm,Calm,-,N/A,,Clear,0,2013-08-02 12:53:00
8:53 AM,82.0,73.0,74,29.98,10.0,Calm,Calm,-,N/A,,Clear,0,2013-08-02 13:53:00
9:53 AM,84.9,75.0,72,30.00,10.0,SE,4.6,-,N/A,,Clear,140,2013-08-02 14:53:00
10:53 AM,89.1,75.9,65,30.00,10.0,Variable,3.5,-,N/A,,Partly Cloudy,0,2013-08-02 15:53:00
11:35 AM,89.6,75.2,62,29.99,10.0,Calm,Calm,-,N/A,,Mostly Cloudy,0,2013-08-02 16:35:00
11:53 AM,88.0,75.9,67,29.99,10.0,WSW,3.5,-,N/A,,Mostly Cloudy,240,2013-08-02 16:53:00
12:53 PM,91.9,77.0,62,29.98,10.0,North,3.5,-,N/A,,Mostly Cloudy,360,2013-08-02 17:53:00
1:53 PM,93.9,77.0,58,29.98,10.0,Calm,Calm,-,N/A,,Mostly Cloudy,0,2013-08-02 18:53:00
2:00 PM,93.2,77.0,59,29.98,10.0,NNW,4.6,-,N/A,,Mostly Cloudy,330,2013-08-02 19:00:00
2:53 PM,93.9,75.0,54,29.96,9.0,West,4.6,-,N/A,,Mostly Cloudy,280,2013-08-02 19:53:00
3:53 PM,95.0,73.9,50,29.94,7.0,WNW,4.6,-,N/A,,Partly Cloudy,300,2013-08-02 20:53:00
4:53 PM,87.1,72.0,61,29.94,10.0,SSW,8.1,-,N/A,,Scattered Clouds,200,2013-08-02 21:53:00
5:53 PM,91.0,75.0,59,29.93,10.0,Calm,Calm,-,N/A,,Clear,0,2013-08-02 22:53:00
6:53 PM,91.9,75.0,58,29.94,10.0,Calm,Calm,-,N/A,,Clear,0,2013-08-02 23:53:00
7:53 PM,86.0,77.0,74,29.95,6.0,ESE,3.5,-,N/A,,Haze,110,2013-08-03 00:53:00
8:53 PM,81.0,78.1,91,29.98,5.0,West,3.5,-,0.04,Rain,Rain,270,2013-08-03 01:53:00
9:53 PM,81.0,79.0,94,29.99,8.0,Calm,Calm,-,0.01,,Partly Cloudy,0,2013-08-03 02:53:00
10:53 PM,81.0,75.0,82,30.01,10.0,SE,4.6,-,N/A,,Clear,140,2013-08-03 03:53:00
11:53 PM,79.0,75.9,90,30.01,10.0,Calm,Calm,-,N/A,,Clear,0,2013-08-03 04:53:00